User: anonymous   Login
Location: Amon Carter Post Office
(32.8281°N, 97.0484°W)
Time: 16:25:56
(UTC+00:00)
Language:

SKYMED 2 - Orbit

View from above orbital plane
View from above orbital plane
View from above satellite
View from above satellite

Ground track
Ground track

The orbit data is extracted from the following two-line orbital elements,

1 32376U 07059A   22145.14441350  .00000822  00000-0  10976-3 0  9996
2 32376  97.8887 329.1431 0001424  93.4514 266.6845 14.82165286782254
Epoch (UTC): 25 May 2022 03:27:57
Eccentricity: 0.0001424
inclination: 97.8887°
perigee height: 621 km
apogee height: 623 km
right ascension of ascending node: 329.1431°
argument of perigee: 93.4514°
revolutions per day: 14.82165286
mean anomaly at epoch: 266.6845°
orbit number at epoch: 78225

The dashed part of the orbit path shows where the satellite is in the earth's shadow,  

DLR